Regional Weather Roundup
Issued by NWS

Home | Current Version | Previous Version | Text Only | Print | Product List | Glossary Off
Versions: 1 2 3 4 5 6 7 8 9 10 11 12 13 14 15 16 17 18 19 20 21 22 23 24 25 26 27 28 29 30 31 32 33 34 35 36 37 38 39 40 41 42 43 44 45 46 47 48 49 50

000
ASUS43 KLMK 031110
RWRKY
KENTUCKY REGIONAL WEATHER ROUNDUP
NATIONAL WEATHER SERVICE LOUISVILLE KY
700 AM EDT SUN MAY 03 2015

NOTE "FAIR" INDICATES FEW OR NO CLOUDS BELOW 12,000 FEET
WITH NO SIGNIFICANT WEATHER AND/OR OBSTRUCTIONS TO VISIBILITY.

KYZ001>023-026-027-061>063-070>075-031200-
WESTERN AND SOUTH CENTRAL KENTUCKY

CITY           SKY/WX    TMP DP  RH WIND       PRES   REMARKS
PADUCAH        CLOUDY    59  46  62 S5        30.06R
HENDERSON      MOCLDY    54  48  82 CALM      30.07R
OWENSBORO      PTCLDY    55  48  77 CALM      30.09R
HOPKINSVILLE   CLEAR     53  49  89 E2        30.08S FOG
BOWLING GREEN  PTCLDY    47  44  90 CALM      30.11S FOG
GLASGOW        CLEAR     44  44 100 CALM      30.12R FOG
$$

KYZ024-025-028>034-038-045-046-053-031200-
NORTH CENTRAL KENTUCKY

CITY           SKY/WX    TMP DP  RH WIND       PRES   REMARKS
LOUISVILLE/SDF MOCLDY    53  48  83 SE5       30.11R
LOUISVILLE/LOU PTCLDY    51  47  86 CALM      30.11R
FORT KNOX      PTCLDY    48  46  91 CALM      30.09R
$$

KYZ035>037-039>044-047>052-055>060-089>105-031200-
NORTHEAST KENTUCKY

CITY           SKY/WX    TMP DP  RH WIND       PRES   REMARKS
LEXINGTON      MOCLDY    49  44  83 SE7       30.13R
COVINGTON      MOCLDY    51  45  79 S3        30.10R
FRANKFORT      MOCLDY    49  45  86 CALM      30.11R
$$

KYZ054-064>069-076>088-106>120-031200-
SOUTHEAST KENTUCKY

CITY           SKY/WX    TMP DP  RH WIND       PRES   REMARKS
JACKSON        CLEAR     52  39  61 CALM      30.14R
LONDON         CLEAR     46  40  79 CALM      30.14R
SOMERSET       PTCLDY    43  43 100 CALM      30.15R
MIDDLESBORO    CLEAR     40  40 100 CALM      30.18R
MONTICELLO     SUNNY     42  42 100 CALM      30.16R
$$




USA.gov is the U.S. government's official web portal to all federal, state and local government web resources and services.